Chillicothe, MO

5:59 PM CST on February 23, 2017 (GMT -0600)
Chillicothe

Weather History for KCDJ - December, 2012

Change the Weather History Date:

Tuesday, December 4, 2012

  Actual Average (KIRK) Record (KIRK)
Temperature  
Mean Temperature 48 °F -  
Max Temperature 63 °F 39 °F 68 °F (1998)
Min Temperature 32 °F 22 °F 2 °F (1991)
Degree Days  
Heating Degree Days 18    
Moisture  
Dew Point 29 °F    
Average Humidity 55    
Maximum Humidity 85    
Minimum Humidity 22    
Precipitation  
Precipitation 0.00 in - - ()
Sea Level Pressure  
Sea Level Pressure 30.24 in    
Wind  
Wind Speed 2 mph (NW)    
Max Wind Speed 8 mph    
Max Gust Speed -    
Averages and records for this station are not official NWS values.
T = Trace of Precipitation, MM = Missing Value Source: NWS Daily Summary

Daily Weather History Graph

Daily Weather History Graph

Search for Another Location

Airport or City:

Trip Planner

Search our weather history database for the weather conditions in past years. The results will help you decide how hot, cold, wet, or windy it might be!

Date:

Astronomy

Dec. 04, 2012 Rise Set
Actual Time 7:19 AM CST 4:49 PM CST
Civil Twilight 6:49 AM CST 5:19 PM CST
Nautical Twilight 6:16 AM CST 5:53 PM CST
Astronomical Twilight 5:43 AM CST 6:25 PM CST
Moon 10:37 PM CST (12/4) 11:14 AM CST (12/4)
Length of Visible Light 10h 29m
Length of Day
9h 29m
Waning Gibbous, 69% of the Moon is Illuminated
Dec 4
Waning Gibbous
Dec 6
Last Quarter
Dec 13
New
Dec 19
First Quarter
Dec 28
Full

Hourly Weather History & Observations

Time (CST) Temp. Windchill Dew Point Humidity Pressure Visibility Wind Dir Wind Speed Gust Speed Precip Events Conditions
12:52 AM 46.9 °F - 35.1 °F 63% 30.05 in - Calm Calm - N/A   Unknown
1:52 AM 46.9 °F - 34.0 °F 61% 30.08 in - NW 3.5 mph - N/A   Unknown
2:52 AM 45.0 °F 42.6 °F 32.0 °F 60% 30.11 in - NW 4.6 mph - N/A   Unknown
3:52 AM 45.0 °F 43.5 °F 30.9 °F 58% 30.13 in - NW 3.5 mph - N/A   Unknown
4:52 AM 42.1 °F 40.2 °F 30.0 °F 62% 30.16 in - NW 3.5 mph - N/A   Unknown
5:52 AM 37.0 °F - 30.0 °F 76% 30.19 in - Calm Calm - N/A   Unknown
6:52 AM 33.1 °F - 28.0 °F 82% 30.23 in - Calm Calm - N/A   Unknown
7:52 AM 32.0 °F - 28.0 °F 85% 30.25 in - Calm Calm - N/A   Unknown
8:52 AM 42.1 °F - 32.0 °F 67% 30.26 in - Calm Calm - N/A   Unknown
9:52 AM 50.0 °F - 30.0 °F 46% 30.27 in - Variable 3.5 mph - N/A   Unknown
10:52 AM 55.0 °F - 30.9 °F 40% 30.27 in - Calm Calm - N/A   Unknown
11:52 AM 60.1 °F - 32.0 °F 35% 30.25 in - Calm Calm - N/A   Unknown
12:52 PM 62.1 °F - 27.0 °F 26% 30.24 in - WNW 8.1 mph - N/A   Unknown
1:52 PM 63.0 °F - 24.1 °F 23% 30.23 in - WNW 8.1 mph - N/A   Unknown
2:52 PM 63.0 °F - 23.0 °F 22% 30.23 in - NNW 6.9 mph - N/A   Unknown
3:52 PM 63.0 °F - 25.0 °F 24% 30.24 in - WNW 4.6 mph - N/A   Unknown
4:52 PM 55.0 °F - 24.1 °F 30% 30.27 in - Calm Calm - N/A   Unknown
5:52 PM 45.0 °F - 27.0 °F 49% 30.29 in - Calm Calm - N/A   Unknown
6:52 PM 39.0 °F - 27.0 °F 62% 30.32 in - Calm Calm - N/A   Unknown
7:52 PM 37.9 °F - 27.0 °F 65% 30.32 in - Calm Calm - N/A   Unknown
8:52 PM 36.0 °F - 28.0 °F 73% 30.33 in - Calm Calm - N/A   Unknown
9:52 PM 35.1 °F - 26.1 °F 70% 30.32 in - Calm Calm - N/A   Unknown
10:52 PM 34.0 °F - 27.0 °F 75% 30.32 in - Calm Calm - N/A   Unknown
11:52 PM 34.0 °F 31.0 °F 26.1 °F 73% 30.34 in - NNW 3.5 mph - N/A   Unknown